Wind_Speed
39 37 30 22 23 36 42 38 38 39 39 43 46 47 47 45 43 40 39 38 36 35 32 30 30 31 31 29 25 22 20 19 21 24 24 24 23 21 20 18 17 16 16 15 13 13 13 12 13 13 12 12 13 13 14 13 12 12 12 12 11 10 10
37 38 35 28 25 32 39 37 37 38 38 40 42 43 45 46 44 42 40 39 37 36 35 32 33 33 33 33 29 24 22 21 23 26 26 25 24 23 21 19 18 17 17 17 16 15 15 14 14 13 12 12 12 13 14 13 13 13 13 14 13 12 11
34 35 35 33 29 28 34 37 37 38 39 40 41 42 44 44 43 42 40 40 39 39 38 37 36 35 35 37 36 30 26 25 26 28 28 27 26 24 22 21 20 19 19 19 18 18 18 16 15 14 13 12 12 13 13 13 13 14 14 15 15 14 13
34 32 31 32 30 26 29 33 36 38 40 40 41 41 42 42 40 39 38 39 38 38 39 40 40 39 37 38 39 36 31 28 28 30 30 28 27 25 23 22 22 21 21 21 21 20 19 18 17 15 14 13 13 13 14 14 13 13 15 16 16 16 15
35 33 31 31 31 27 23 24 31 40 40 38 39 39 39 39 36 35 35 35 34 34 37 40 42 42 41 39 38 37 35 32 31 32 32 30 29 27 26 25 24 24 22 22 23 22 21 20 19 17 16 15 15 14 14 15 14 13 14 15 16 16 16
37 36 33 33 34 33 26 19 23 38 43 38 36 37 38 37 35 33 35 35 33 33 35 38 41 42 42 40 39 38 36 34 33 34 34 33 31 30 29 28 27 25 24 24 24 23 22 21 20 19 18 18 17 15 15 16 15 14 14 14 15 16 16
38 38 35 33 34 36 36 27 20 29 40 39 36 36 36 35 33 33 34 34 34 34 35 37 39 40 40 39 39 39 38 36 35 35 36 35 33 32 31 29 28 26 26 27 26 26 25 23 22 21 20 19 18 17 17 17 17 16 15 14 15 15 15
36 40 39 35 33 34 37 34 24 21 26 30 34 35 34 33 32 33 35 34 34 34 35 37 39 40 39 37 38 39 39 39 37 37 37 36 34 33 31 30 29 28 27 28 27 27 27 26 25 23 22 21 20 19 19 18 18 18 17 15 15 15 15
35 39 40 39 36 34 34 35 31 24 20 21 28 33 34 33 33 34 35 35 36 36 36 37 39 41 40 37 36 37 38 40 39 38 39 38 35 34 32 31 30 29 28 28 28 28 28 28 28 26 24 23 22 22 21 20 20 20 18 17 16 15 16
33 37 40 41 40 36 35 34 33 31 26 21 22 27 31 32 32 32 33 35 37 38 38 38 39 41 41 38 37 37 38 40 40 39 40 39 36 35 34 33 32 31 30 29 28 28 29 29 29 29 27 25 24 24 22 21 22 22 20 19 18 17 17
31 36 39 41 41 39 36 35 35 35 33 29 26 26 28 29 29 29 29 32 36 38 39 40 41 42 41 39 38 39 39 41 41 40 40 39 37 36 35 34 33 32 33 32 30 30 30 30 30 30 30 28 26 25 24 23 24 23 22 22 22 20 18
30 34 38 40 40 39 38 37 37 37 36 34 32 31 30 30 29 28 27 29 33 36 38 39 40 41 40 41 40 40 40 41 41 41 41 39 37 35 35 34 33 33 34 34 33 33 32 32 32 32 31 30 29 27 26 25 25 24 24 25 25 22 19
27 33 37 40 40 39 39 39 39 38 37 36 35 35 34 33 31 30 29 28 30 35 37 38 38 39 39 40 40 38 39 41 41 41 40 38 36 35 35 35 33 33 35 36 35 36 35 34 34 33 33 32 31 30 29 27 26 26 27 27 27 25 22
23 30 36 40 40 39 39 40 40 39 39 38 37 37 37 36 34 34 33 30 29 33 37 38 37 38 38 39 40 39 38 39 39 39 38 37 36 35 35 36 35 35 37 37 37 38 38 37 35 35 35 34 33 33 32 29 27 28 30 29 28 28 25
20 26 33 38 40 39 40 40 41 40 40 40 39 39 38 38 37 37 36 33 30 32 37 39 37 37 39 40 41 42 41 40 40 38 38 37 38 38 38 38 37 38 39 39 38 39 40 39 38 37 37 36 36 35 35 32 29 30 32 31 30 30 27
19 22 28 35 38 39 40 41 41 41 41 41 41 41 40 39 38 38 37 35 32 32 36 41 40 38 39 41 43 44 44 43 42 41 40 40 41 42 41 40 39 40 41 41 40 41 42 42 41 39 39 38 38 38 38 36 33 31 33 34 33 32 30
21 21 24 30 36 38 40 41 42 42 42 43 42 42 42 40 39 38 37 36 34 33 36 41 44 41 39 40 42 43 44 44 43 42 42 42 43 44 44 42 41 41 42 42 42 43 44 44 43 42 41 40 40 40 40 39 36 35 35 36 36 34 32
23 22 22 26 33 37 40 42 42 42 43 43 44 43 42 41 39 38 37 37 36 35 36 40 45 46 43 41 41 42 43 43 43 42 42 43 44 45 46 44 43 43 44 44 44 45 45 45 45 44 43 41 41 41 42 41 38 37 38 37 37 37 36
25 24 24 24 28 35 40 41 42 43 43 44 44 44 43 42 40 39 39 39 38 37 37 39 43 46 46 46 44 44 45 44 43 43 43 43 45 46 46 45 45 45 45 45 45 46 46 46 46 45 43 41 41 42 43 43 40 39 39 39 38 39 38
28 26 26 25 25 30 37 41 42 43 44 45 46 46 45 44 42 41 41 41 39 38 37 38 41 44 46 47 48 47 47 46 46 45 45 45 46 47 47 46 46 45 46 46 46 47 47 46 46 44 42 40 40 41 43 43 41 39 39 40 40 40 40
29 28 27 27 26 27 32 38 42 43 44 45 46 47 47 45 44 43 43 42 42 41 39 38 38 40 43 45 47 48 48 48 48 47 47 47 47 47 47 47 47 46 46 47 47 47 47 46 44 42 40 39 39 41 43 43 43 41 40 41 42 42 42
31 30 29 28 28 27 28 32 39 44 45 46 47 47 47 47 46 45 45 44 43 43 42 41 40 40 41 42 44 45 47 48 49 49 48 48 47 47 48 48 48 47 47 48 48 48 47 45 44 42 40 39 39 41 43 44 43 42 41 41 42 44 45
32 31 30 29 29 29 28 29 33 40 44 46 47 48 48 48 47 47 46 46 45 44 44 44 43 43 43 44 44 45 47 48 49 50 50 49 48 47 47 48 48 48 48 49 50 49 47 46 45 44 43 41 40 41 43 43 42 42 42 41 41 43 44
31 32 31 30 29 29 29 29 29 33 39 44 47 47 48 48 48 48 48 47 47 46 46 45 45 46 46 46 46 46 47 47 49 50 50 50 49 48 48 48 48 48 48 50 51 50 48 48 47 47 46 44 42 42 42 42 41 41 41 41 41 42 42
29 31 32 31 30 30 30 30 30 30 33 37 42 45 47 48 48 49 49 49 49 49 48 48 47 47 47 47 47 47 47 47 48 49 50 51 50 49 49 49 49 49 49 50 51 51 50 51 51 50 49 48 46 44 43 42 41 41 42 41 41 41 41
24 28 30 31 31 31 30 30 30 30 31 33 36 39 42 45 47 48 49 49 50 50 50 50 50 49 49 49 49 48 48 48 48 48 49 50 51 51 50 50 50 50 50 51 52 52 52 52 53 53 52 51 49 47 45 44 44 44 44 44 43 43 42
18 23 27 29 30 31 30 30 30 30 31 32 33 34 37 39 42 45 47 48 49 51 52 52 51 50 50 50 50 50 49 49 49 49 49 49 51 52 52 52 52 52 52 53 52 52 52 53 54 56 55 52 50 49 48 47 47 47 47 46 45 44 44
14 17 21 24 27 28 29 29 29 30 30 31 33 33 35 36 37 39 41 43 46 48 51 52 52 52 51 51 51 51 51 51 50 50 50 50 50 52 53 54 54 55 55 55 53 52 52 53 54 57 59 57 54 52 52 51 51 51 50 50 49 47 46
12 13 15 18 21 23 25 26 27 28 29 30 31 33 34 35 36 37 38 39 41 43 46 48 50 51 52 52 53 53 53 53 53 53 52 52 52 53 54 56 57 58 59 58 56 54 52 51 51 52 55 56 56 55 53 53 53 53 52 52 52 50 49
13 13 14 15 16 18 21 23 24 25 26 28 29 31 32 33 35 36 38 39 40 40 41 43 45 47 49 50 52 53 54 55 55 55 55 55 55 55 55 57 59 61 63 63 61 60 57 54 52 51 51 52 54 54 54 54 55 55 55 55 55 54 53
14 15 15 15 15 16 17 19 21 23 24 25 27 28 30 32 33 35 36 38 39 40 41 42 43 45 46 47 48 49 51 52 54 55 56 57 57 57 56 57 58 61 65 68 68 66 64 62 60 57 56 55 56 56 57 58 59 59 59 59 58 58 58
14 15 15 15 16 16 17 18 19 20 22 23 25 26 27 29 31 32 34 36 37 39 40 41 42 43 45 46 47 48 49 50 50 52 53 55 56 57 58 58 58 59 63 68 72 72 71 69 67 65 62 60 60 60 60 61 63 63 64 64 64 64 64
13 14 14 15 15 15 16 17 18 19 21 22 23 24 26 27 29 30 32 33 35 36 38 39 40 42 43 44 45 47 48 49 50 51 52 52 54 55 56 58 59 60 61 65 70 74 75 75 75 73 71 69 67 66 66 66 66 66 68 69 70 70 70
12 13 13 14 14 14 15 15 16 17 18 19 21 22 23 25 27 28 29 31 33 34 36 37 39 40 41 43 44 45 47 48 49 50 51 52 53 54 55 56 58 60 61 63 66 71 75 77 79 80 79 78 77 76 76 75 74 73 74 74 74 75 75
11 11 12 12 13 14 14 15 15 16 16 17 18 19 20 22 23 25 26 28 30 32 33 35 37 38 40 41 42 44 45 47 48 49 50 51 52 53 54 56 57 59 61 62 64 67 70 74 77 79 80 80 80 81 81 81 80 80 79 78 78 78 78
9 9 9 10 12 13 14 14 15 15 15 15 16 17 18 20 21 23 24 25 27 28 30 31 34 36 38 39 41 42 43 44 46 48 49 49 51 52 53 55 56 58 60 62 64 66 68 70 72 74 76 77 79 80 81 81 81 82 81 81 81 81 81
9 10 10 11 11 12 13 14 14 15 15 15 16 16 17 18 20 21 23 24 26 27 28 29 30 32 34 36 38 40 41 43 43 45 46 47 48 49 51 52 53 55 57 59 61 64 66 69 71 72 74 76 77 78 79 79 79 80 80 81 81 82 82
Wind_Direction
236 238 237 235 236 222 213 214 217 217 218 216 214 212 211 211 213 216 219 221 222 221 219 219 219 222 226 229 229 229 232 233 231 228 228 231 233 235 236 237 239 239 239 238 237 240 242 245 248 247 246 247 249 246 239 228 220 221 227 226 220 215 215
236 238 237 239 245 229 217 218 215 212 214 214 215 216 214 213 216 219 222 224 226 225 222 221 222 225 228 229 229 229 232 232 229 225 226 230 232 232 231 231 233 234 236 237 237 238 239 240 243 246 246 246 248 252 250 241 227 222 225 230 229 224 221
233 237 238 240 246 235 219 217 215 213 216 217 219 220 219 219 221 224 227 229 230 229 227 226 227 230 233 234 232 230 231 232 229 224 223 227 231 231 229 228 229 229 232 235 235 235 235 236 238 241 243 243 245 250 253 250 238 228 225 229 233 230 227
227 231 234 234 239 236 220 214 214 214 216 217 217 218 219 221 222 225 227 227 227 229 230 230 231 233 237 240 238 234 231 231 230 225 222 224 229 232 230 227 226 227 230 233 234 233 233 234 234 235 237 239 243 246 250 252 245 235 229 229 233 234 232
222 224 228 230 233 232 223 218 218 216 213 212 213 215 217 218 219 220 220 220 224 228 229 230 231 232 233 236 239 236 231 230 230 226 222 221 226 230 230 227 225 225 228 233 236 234 232 232 232 232 234 237 240 242 247 250 247 240 232 229 233 235 234
221 220 224 229 231 230 228 235 230 217 210 208 210 213 215 215 217 219 218 220 225 228 229 228 227 229 229 230 234 234 231 230 230 228 223 220 222 226 227 227 225 224 225 231 236 237 235 234 233 232 232 236 239 239 241 247 248 245 234 226 229 234 235
222 220 221 225 229 230 231 240 237 212 206 208 211 211 212 213 216 219 221 223 227 231 232 229 226 227 228 228 230 230 230 231 231 229 226 222 220 222 225 227 227 225 225 228 233 237 238 237 235 233 231 233 238 238 238 241 245 246 240 227 223 228 232
224 221 220 220 223 226 229 235 235 210 198 204 207 206 208 213 217 220 221 223 227 231 233 232 229 228 228 229 230 231 230 231 230 229 227 224 221 221 222 226 228 228 227 228 231 236 239 241 240 237 232 231 235 238 237 238 241 244 243 234 224 223 229
226 223 221 220 221 222 225 230 231 221 202 197 201 204 208 214 218 221 222 222 224 227 229 231 230 228 227 228 232 234 233 231 229 227 226 224 222 221 223 224 226 229 230 230 231 234 238 241 243 243 238 232 232 235 237 237 239 241 241 239 231 224 227
226 224 223 222 222 222 222 225 226 224 219 212 204 204 208 213 216 219 222 224 225 225 225 226 227 227 227 226 230 236 236 233 228 224 223 224 224 224 226 226 226 228 232 233 234 236 238 239 241 244 243 238 233 234 236 237 239 240 239 240 236 229 228
227 224 224 224 223 222 220 221 222 223 225 225 220 213 211 213 214 216 220 223 225 225 224 223 222 223 225 226 229 234 236 233 226 220 220 223 224 227 230 231 228 229 232 234 235 238 239 239 239 241 242 241 237 234 235 237 240 241 240 240 239 234 231
229 224 223 224 224 221 218 217 218 220 222 224 225 222 219 217 217 218 221 224 226 225 224 225 225 224 226 227 229 231 232 228 221 217 218 221 225 230 235 235 233 233 235 236 238 240 241 241 240 240 240 241 239 236 234 235 240 242 241 242 243 239 234
230 226 223 224 224 222 218 216 216 217 219 220 221 222 222 222 221 222 223 225 227 226 224 225 226 227 228 229 228 228 227 221 216 215 218 222 228 235 239 239 236 235 236 238 240 242 243 242 241 241 241 239 238 237 234 234 238 242 241 241 244 243 238
235 228 225 224 225 223 219 216 215 216 217 218 218 220 222 222 222 224 227 227 229 229 225 223 223 224 226 227 225 223 222 220 218 219 221 225 231 237 240 240 238 236 237 238 239 241 243 241 240 240 241 240 237 236 234 231 234 241 242 241 243 245 241
245 232 227 225 225 223 221 219 217 215 216 217 217 218 220 221 222 224 227 228 230 231 227 222 219 220 221 222 223 221 221 222 223 224 225 228 232 236 238 238 237 237 238 238 239 239 241 241 240 240 240 240 238 236 234 230 228 236 242 242 241 244 243
254 239 230 227 226 224 223 222 219 216 216 217 217 217 219 220 220 223 226 227 229 231 228 222 218 219 220 220 221 223 223 224 224 225 227 229 232 235 236 235 236 236 236 237 237 238 239 241 242 241 241 241 239 236 235 231 226 228 237 241 240 241 242
255 248 236 229 225 224 224 224 222 219 217 217 217 218 219 220 219 221 223 225 227 229 228 224 219 218 221 222 222 224 225 226 226 227 229 230 230 232 233 234 234 235 235 236 236 237 239 241 243 243 242 241 239 237 235 232 227 224 230 238 240 240 239
251 251 246 235 227 224 223 225 225 222 219 219 219 220 221 221 220 220 222 224 227 227 226 224 221 219 220 222 223 224 224 226 228 231 234 234 232 231 232 233 234 235 236 236 236 237 239 241 243 244 244 244 241 236 234 233 230 225 226 232 239 241 240
247 248 248 243 233 226 224 225 226 225 223 221 222 223 224 223 222 222 222 223 225 227 224 222 222 222 221 222 224 224 225 227 230 234 236 236 236 234 234 234 234 235 236 236 236 238 239 241 243 245 247 247 243 236 233 233 232 229 226 228 235 241 243
245 245 246 246 240 231 226 225 225 226 226 225 225 226 227 226 224 223 224 224 224 226 226 223 221 222 222 223 224 225 226 229 233 236 236 237 237 238 238 237 236 236 235 235 235 237 239 241 244 246 248 250 245 235 230 231 233 232 229 227 231 237 242
243 243 243 244 243 237 230 227 226 226 227 227 227 228 228 229 228 226 225 225 225 225 226 226 224 223 224 224 225 226 227 229 232 235 236 237 238 239 240 239 237 236 235 234 235 236 238 240 243 246 249 250 244 233 228 229 232 233 232 230 230 234 239
239 241 241 241 241 240 235 230 228 228 228 229 230 230 230 231 231 230 228 228 227 226 225 226 226 226 225 226 228 229 230 231 232 233 235 237 238 239 240 240 238 236 235 234 234 236 237 239 241 244 247 247 242 234 230 230 231 234 235 233 232 234 236
236 238 239 239 239 239 237 234 231 230 230 231 231 232 232 233 233 233 232 231 231 230 228 227 227 227 227 227 228 229 231 232 233 234 235 236 237 238 239 239 238 237 236 235 234 236 238 239 240 243 245 244 240 236 234 233 234 235 236 236 236 236 237
233 235 236 238 238 238 238 236 233 232 231 233 234 235 234 234 235 235 235 235 235 234 233 232 230 230 230 230 231 231 232 232 233 235 235 236 236 236 237 238 238 238 237 235 234 236 238 240 240 242 243 242 239 238 237 236 236 235 235 236 237 239 240
231 233 235 236 237 237 237 236 235 234 232 233 235 237 237 237 237 237 238 238 238 238 238 237 235 234 233 233 234 234 234 235 235 235 236 236 236 234 234 236 237 237 236 234 234 236 238 240 240 240 240 240 240 239 238 238 238 238 237 236 237 238 240
232 232 234 235 236 236 237 237 236 235 234 234 234 236 238 239 240 240 241 241 241 241 242 242 241 239 238 237 236 236 237 237 238 238 238 238 238 237 235 234 235 235 234 232 233 236 238 239 239 238 237 239 240 240 239 240 240 240 240 239 238 239 241
238 235 235 236 237 238 238 238 237 237 236 236 235 235 236 238 239 241 242 243 243 244 245 245 245 244 243 242 241 241 240 240 241 242 242 242 242 241 239 236 233 232 231 231 233 235 237 238 238 237 237 239 240 240 239 240 241 241 242 242 241 241 242
248 242 239 238 239 240 240 240 240 240 239 239 238 238 238 237 238 238 240 241 242 243 245 246 247 247 247 247 246 246 245 244 245 245 246 246 245 244 243 240 235 231 229 231 233 235 237 238 239 239 239 239 240 240 239 240 241 242 243 244 243 242 242
257 253 248 244 243 243 244 244 244 244 244 243 242 242 241 240 239 239 239 240 241 241 242 244 245 247 248 248 248 248 248 247 247 246 246 247 247 247 245 243 239 233 229 230 232 233 235 237 239 240 240 239 238 239 240 239 240 242 243 245 245 244 243
257 258 256 254 252 250 249 249 249 248 248 248 248 247 245 244 243 242 242 242 242 242 241 242 243 244 245 247 248 248 249 249 248 248 247 247 247 247 246 245 242 237 231 229 230 232 233 235 237 239 239 238 238 240 241 240 241 243 245 246 247 247 246
253 257 259 260 260 259 257 255 254 253 252 251 251 251 251 250 248 247 246 246 246 246 245 245 244 244 244 245 246 247 248 248 249 249 249 249 248 248 248 248 246 242 236 232 230 231 233 235 237 239 240 240 240 241 242 243 244 246 248 249 248 248 248
250 254 258 260 261 262 262 262 261 260 259 257 255 254 254 253 253 253 252 251 251 251 250 250 249 249 248 247 247 247 247 247 248 248 248 249 249 249 249 248 248 247 243 238 235 233 234 235 237 240 242 243 244 244 244 244 246 248 251 251 251 250 249
249 252 255 257 258 258 260 262 264 264 264 263 262 260 258 257 257 257 257 256 255 254 253 253 253 252 252 251 251 250 250 249 248 248 248 249 249 249 249 248 248 248 247 244 240 238 238 238 240 243 245 248 249 249 248 248 248 250 252 253 253 252 251
252 253 254 254 254 256 258 261 264 265 266 267 266 265 263 261 260 259 259 259 259 259 258 257 256 255 254 254 253 253 253 252 251 250 250 250 249 249 249 249 249 248 248 246 244 243 242 243 244 247 249 251 253 254 253 253 254 255 255 254 254 254 254
254 255 255 254 255 257 260 262 265 266 268 269 270 270 268 267 264 263 261 260 260 260 260 260 259 259 258 257 256 255 255 255 254 254 254 253 253 251 250 250 250 250 250 249 248 247 246 246 247 248 250 252 254 255 255 255 256 256 256 255 254 254 254
256 256 257 257 258 260 262 263 265 266 267 269 270 271 271 271 270 269 267 266 264 263 262 261 260 260 259 259 258 258 257 257 256 255 255 256 256 255 254 253 252 252 251 251 251 251 251 251 250 251 251 252 253 254 254 255 255 255 255 255 254 254 254
266 264 263 262 261 262 263 265 266 266 267 267 268 268 269 270 271 271 271 270 270 269 268 267 265 263 262 260 259 259 258 258 257 256 256 256 256 256 256 256 256 255 254 254 253 254 254 254 254 254 254 253 253 253 254 254 254 254 254 254 254 254 254
Height
5736 5737 5739 5742 5743 5745 5747 5749 5751 5754 5757 5760 5765 5769 5773 5777 5781 5784 5786 5789 5792 5795 5798 5801 5803 5805 5806 5809 5811 5813 5816 5819 5822 5823 5825 5826 5829 5830 5831 5832 5833 5834 5836 5837 5838 5839 5840 5841 5842 5843 5844 5845 5846 5847 5848 5848 5848 5848 5849 5849 5849 5850 5850
5732 5734 5737 5739 5740 5743 5745 5748 5750 5753 5756 5759 5763 5767 5771 5774 5778 5781 5784 5787 5790 5792 5795 5798 5800 5802 5804 5806 5809 5811 5813 5816 5819 5821 5823 5825 5826 5828 5829 5830 5831 5833 5834 5835 5836 5837 5838 5839 5840 5841 5842 5843 5844 5845 5847 5848 5848 5848 5848 5848 5848 5849 5849
5729 5731 5734 5736 5738 5741 5743 5746 5749 5752 5754 5757 5761 5765 5768 5772 5775 5778 5781 5784 5787 5789 5792 5795 5797 5800 5802 5804 5806 5808 5810 5812 5815 5818 5821 5822 5823 5825 5827 5828 5829 5830 5831 5832 5834 5835 5836 5837 5838 5839 5840 5841 5842 5843 5844 5846 5847 5847 5847 5847 5847 5847 5848
5726 5729 5731 5734 5736 5739 5740 5743 5747 5750 5752 5756 5759 5762 5765 5768 5772 5776 5779 5782 5784 5787 5789 5791 5794 5797 5799 5801 5802 5804 5807 5810 5812 5815 5818 5820 5821 5823 5825 5826 5827 5828 5829 5830 5831 5832 5834 5835 5836 5837 5838 5839 5840 5841 5842 5843 5845 5846 5846 5846 5846 5846 5846
5723 5726 5729 5731 5734 5737 5739 5741 5743 5746 5750 5753 5756 5759 5762 5766 5770 5773 5776 5779 5781 5784 5786 5788 5790 5793 5795 5797 5799 5802 5804 5807 5809 5812 5815 5817 5819 5820 5822 5824 5825 5826 5827 5828 5829 5830 5832 5833 5834 5836 5837 5837 5838 5840 5840 5841 5842 5844 5845 5845 5845 5844 5845
5720 5723 5726 5728 5731 5735 5737 5739 5741 5743 5747 5751 5754 5757 5760 5763 5767 5770 5773 5776 5778 5780 5783 5784 5786 5789 5791 5794 5796 5799 5802 5804 5806 5809 5812 5814 5816 5817 5819 5820 5822 5824 5826 5826 5827 5828 5829 5831 5832 5833 5835 5835 5836 5838 5839 5839 5840 5841 5843 5844 5843 5843 5843
5717 5719 5722 5725 5728 5731 5735 5738 5739 5740 5743 5747 5751 5754 5757 5761 5764 5767 5770 5772 5775 5777 5780 5781 5783 5785 5788 5790 5793 5796 5799 5801 5803 5806 5809 5812 5813 5815 5816 5817 5820 5822 5823 5824 5825 5826 5827 5828 5830 5831 5832 5833 5835 5836 5836 5837 5838 5839 5841 5842 5842 5842 5842
5713 5716 5719 5721 5724 5728 5731 5735 5738 5739 5741 5744 5747 5751 5755 5758 5761 5764 5766 5770 5772 5774 5777 5778 5780 5782 5784 5787 5790 5793 5795 5798 5800 5803 5807 5809 5811 5812 5813 5815 5817 5819 5820 5822 5824 5825 5826 5827 5827 5828 5830 5831 5833 5834 5834 5835 5836 5837 5839 5840 5841 5841 5841
5709 5712 5715 5718 5721 5724 5728 5732 5736 5738 5740 5742 5745 5748 5752 5755 5758 5760 5763 5766 5769 5771 5773 5775 5777 5778 5781 5784 5787 5790 5792 5794 5797 5800 5803 5806 5808 5809 5811 5812 5814 5816 5818 5819 5821 5823 5824 5825 5826 5827 5828 5829 5830 5831 5832 5833 5834 5835 5837 5838 5839 5840 5840
5706 5709 5712 5715 5717 5721 5725 5729 5733 5736 5738 5740 5743 5746 5749 5752 5754 5757 5760 5762 5764 5767 5769 5771 5773 5775 5778 5781 5784 5786 5789 5790 5793 5796 5799 5802 5805 5807 5808 5810 5812 5813 5814 5816 5818 5820 5822 5823 5824 5825 5826 5827 5828 5829 5831 5832 5832 5833 5834 5836 5837 5838 5839
5703 5705 5708 5711 5714 5717 5721 5725 5729 5733 5735 5738 5741 5744 5746 5749 5751 5753 5756 5758 5760 5762 5765 5767 5769 5771 5774 5777 5780 5782 5785 5787 5789 5792 5795 5799 5801 5804 5806 5808 5810 5812 5812 5813 5815 5817 5819 5821 5822 5823 5824 5825 5827 5828 5829 5830 5830 5831 5833 5833 5834 5835 5837
5700 5702 5705 5708 5711 5714 5717 5721 5725 5728 5732 5735 5738 5741 5743 5745 5748 5750 5752 5754 5756 5758 5760 5763 5765 5768 5770 5773 5776 5778 5781 5783 5786 5789 5791 5795 5798 5800 5803 5806 5808 5810 5810 5811 5812 5813 5815 5817 5819 5820 5821 5823 5824 5826 5827 5828 5828 5829 5831 5831 5831 5833 5835
5697 5699 5702 5705 5708 5711 5714 5717 5720 5724 5727 5730 5733 5737 5739 5742 5744 5747 5749 5751 5752 5754 5757 5759 5761 5764 5767 5769 5772 5775 5777 5780 5782 5785 5788 5791 5794 5797 5800 5802 5805 5807 5807 5808 5809 5810 5811 5813 5815 5816 5818 5819 5821 5823 5824 5826 5827 5827 5828 5829 5829 5831 5832
5695 5696 5699 5701 5704 5707 5710 5713 5716 5719 5723 5726 5729 5732 5735 5738 5740 5743 5745 5747 5749 5751 5753 5755 5757 5760 5763 5766 5769 5772 5775 5777 5779 5782 5785 5788 5790 5793 5796 5798 5801 5802 5803 5804 5805 5806 5807 5809 5810 5812 5814 5816 5818 5819 5820 5823 5824 5824 5824 5826 5828 5828 5830
5692 5694 5695 5698 5701 5704 5707 5710 5713 5716 5719 5722 5725 5728 5730 5733 5736 5739 5741 5743 5745 5747 5749 5751 5753 5756 5759 5762 5765 5768 5771 5774 5776 5779 5781 5784 5786 5789 5791 5794 5796 5797 5798 5800 5801 5802 5803 5805 5806 5808 5810 5812 5814 5816 5816 5818 5821 5821 5822 5823 5825 5826 5827
5690 5691 5693 5695 5698 5701 5704 5707 5710 5713 5715 5718 5721 5724 5726 5729 5732 5735 5737 5739 5741 5743 5745 5747 5750 5752 5755 5758 5761 5764 5766 5769 5772 5774 5777 5779 5781 5783 5786 5789 5791 5792 5793 5795 5797 5798 5799 5800 5802 5804 5806 5807 5810 5812 5813 5814 5816 5818 5818 5819 5822 5823 5825
5688 5689 5690 5692 5694 5697 5700 5703 5706 5709 5712 5714 5717 5720 5722 5725 5728 5730 5733 5735 5737 5739 5740 5742 5745 5748 5751 5754 5757 5759 5762 5765 5767 5769 5772 5774 5776 5778 5781 5784 5786 5787 5788 5791 5793 5794 5795 5796 5798 5799 5801 5803 5805 5808 5809 5810 5812 5814 5814 5815 5818 5820 5821
5686 5687 5688 5689 5691 5693 5696 5699 5702 5705 5708 5710 5713 5716 5718 5721 5724 5726 5729 5731 5733 5735 5736 5738 5741 5744 5747 5750 5753 5755 5758 5760 5763 5765 5768 5770 5772 5774 5776 5779 5781 5782 5783 5786 5788 5789 5791 5792 5793 5795 5796 5798 5800 5803 5805 5806 5808 5809 5811 5812 5814 5816 5818
5683 5684 5685 5686 5688 5690 5693 5696 5699 5701 5704 5707 5709 5712 5714 5717 5720 5723 5725 5727 5730 5732 5733 5734 5736 5739 5742 5745 5748 5751 5753 5756 5758 5761 5763 5765 5767 5769 5771 5774 5776 5777 5779 5781 5783 5784 5786 5787 5789 5790 5792 5793 5795 5797 5800 5802 5804 5805 5807 5810 5811 5812 5814
5680 5682 5683 5684 5685 5687 5689 5692 5695 5698 5701 5703 5705 5707 5710 5713 5716 5719 5721 5723 5726 5728 5730 5731 5733 5735 5738 5740 5743 5746 5749 5751 5753 5756 5758 5760 5763 5764 5767 5769 5771 5773 5774 5776 5778 5780 5781 5783 5785 5786 5788 5789 5790 5792 5794 5798 5800 5802 5803 5805 5807 5809 5810
5677 5679 5680 5682 5683 5685 5686 5689 5691 5694 5697 5699 5702 5704 5706 5709 5712 5715 5717 5719 5721 5724 5726 5728 5730 5732 5734 5736 5739 5741 5744 5746 5748 5750 5753 5755 5758 5760 5762 5764 5766 5768 5769 5771 5773 5775 5777 5779 5781 5782 5784 5784 5785 5787 5789 5792 5795 5797 5799 5801 5803 5805 5806
5674 5676 5678 5679 5681 5682 5684 5686 5688 5691 5693 5696 5698 5700 5703 5705 5708 5710 5713 5715 5717 5719 5721 5724 5726 5728 5730 5732 5734 5737 5739 5741 5743 5745 5747 5750 5752 5754 5756 5758 5760 5763 5764 5766 5768 5770 5772 5774 5776 5778 5779 5780 5781 5783 5785 5787 5789 5792 5794 5796 5799 5800 5802
5671 5673 5675 5677 5678 5680 5682 5683 5685 5687 5690 5692 5694 5696 5699 5701 5703 5706 5708 5711 5713 5715 5717 5719 5721 5723 5725 5727 5729 5732 5734 5736 5738 5740 5742 5744 5746 5749 5751 5752 5755 5757 5759 5761 5763 5765 5768 5769 5771 5773 5775 5775 5777 5779 5780 5782 5785 5787 5789 5791 5794 5796 5797
5668 5670 5672 5674 5676 5677 5679 5681 5682 5684 5686 5689 5691 5693 5695 5697 5699 5701 5703 5706 5709 5711 5713 5715 5717 5719 5721 5722 5724 5727 5729 5731 5733 5735 5737 5739 5741 5743 5745 5747 5749 5752 5754 5756 5758 5761 5763 5764 5766 5768 5770 5771 5772 5774 5775 5777 5780 5782 5783 5786 5788 5790 5793
5664 5667 5669 5671 5673 5674 5676 5678 5679 5681 5683 5685 5687 5689 5691 5693 5695 5697 5699 5702 5704 5706 5708 5710 5712 5714 5716 5718 5720 5722 5724 5726 5728 5730 5731 5733 5736 5738 5739 5741 5744 5746 5749 5751 5753 5755 5757 5759 5761 5762 5764 5765 5767 5768 5770 5772 5775 5776 5778 5780 5783 5785 5788
5661 5663 5665 5667 5669 5671 5673 5675 5677 5678 5680 5682 5684 5685 5687 5689 5691 5693 5695 5698 5700 5702 5704 5705 5707 5709 5711 5713 5715 5717 5719 5721 5723 5725 5727 5728 5731 5733 5734 5736 5738 5741 5744 5746 5748 5749 5751 5753 5755 5757 5758 5759 5760 5763 5765 5767 5769 5771 5772 5774 5776 5779 5783
5658 5660 5662 5664 5666 5668 5670 5672 5673 5675 5677 5678 5680 5682 5683 5685 5687 5689 5691 5693 5695 5697 5698 5700 5703 5705 5707 5709 5711 5713 5715 5717 5719 5721 5723 5724 5726 5728 5730 5731 5732 5735 5738 5740 5742 5744 5746 5748 5750 5751 5752 5753 5755 5757 5759 5761 5763 5765 5766 5768 5770 5774 5777
5656 5658 5659 5661 5663 5665 5667 5668 5670 5672 5673 5675 5677 5678 5680 5682 5684 5685 5687 5689 5690 5691 5693 5696 5699 5701 5703 5705 5706 5708 5710 5712 5714 5716 5718 5720 5722 5723 5725 5727 5728 5729 5732 5735 5737 5739 5740 5742 5744 5745 5746 5747 5749 5751 5753 5755 5757 5759 5760 5762 5764 5767 5770
5655 5656 5657 5659 5660 5662 5663 5665 5667 5668 5670 5671 5673 5675 5676 5678 5680 5682 5683 5684 5685 5687 5690 5692 5694 5695 5697 5699 5700 5702 5704 5706 5708 5710 5712 5713 5715 5717 5719 5721 5722 5724 5726 5728 5731 5733 5735 5736 5737 5739 5740 5742 5743 5745 5747 5749 5750 5752 5754 5755 5757 5759 5763
5654 5655 5656 5657 5658 5659 5660 5662 5663 5665 5666 5668 5669 5671 5672 5674 5676 5678 5679 5680 5681 5683 5686 5687 5688 5690 5692 5693 5695 5696 5698 5700 5701 5703 5705 5707 5708 5710 5711 5713 5715 5717 5719 5721 5723 5726 5728 5729 5731 5732 5734 5735 5737 5738 5740 5742 5743 5745 5747 5748 5750 5752 5755
5653 5653 5654 5655 5656 5657 5658 5659 5660 5662 5663 5665 5666 5667 5669 5670 5672 5673 5675 5676 5677 5679 5681 5682 5683 5685 5686 5688 5689 5691 5692 5694 5695 5697 5699 5700 5702 5704 5705 5707 5708 5710 5713 5715 5716 5718 5720 5721 5723 5724 5726 5728 5730 5731 5734 5735 5736 5738 5740 5741 5743 5744 5746
5651 5652 5653 5653 5654 5655 5656 5657 5658 5659 5660 5661 5663 5664 5665 5666 5668 5669 5670 5671 5672 5674 5675 5677 5678 5679 5681 5682 5684 5685 5686 5688 5689 5691 5692 5694 5695 5697 5699 5701 5702 5704 5706 5708 5710 5711 5712 5713 5714 5716 5717 5719 5722 5725 5727 5728 5729 5732 5733 5734 5736 5737 5738
5650 5651 5651 5652 5653 5653 5654 5655 5656 5656 5657 5658 5659 5660 5661 5662 5663 5664 5665 5666 5668 5669 5670 5671 5672 5674 5675 5677 5678 5679 5680 5682 5683 5685 5686 5687 5689 5690 5691 5693 5694 5696 5697 5700 5702 5704 5706 5706 5707 5708 5709 5710 5714 5718 5719 5719 5721 5725 5726 5726 5728 5728 5729
5649 5650 5650 5651 5652 5652 5653 5654 5654 5654 5655 5655 5656 5657 5658 5659 5659 5660 5661 5662 5662 5663 5665 5666 5667 5668 5669 5671 5672 5673 5674 5675 5677 5678 5680 5681 5682 5684 5684 5685 5686 5687 5689 5690 5693 5695 5697 5699 5700 5701 5702 5704 5707 5708 5708 5709 5713 5715 5716 5718 5719 5719 5720
5648 5649 5649 5650 5651 5651 5652 5652 5652 5653 5653 5653 5653 5654 5655 5655 5656 5656 5657 5658 5658 5659 5660 5661 5661 5662 5663 5664 5666 5667 5667 5669 5670 5672 5673 5674 5675 5676 5677 5678 5679 5679 5680 5682 5684 5686 5688 5690 5691 5693 5695 5697 5698 5697 5697 5699 5703 5704 5706 5708 5710 5710 5712
5648 5648 5649 5649 5650 5650 5650 5651 5651 5651 5651 5652 5652 5652 5652 5653 5653 5653 5654 5654 5655 5655 5656 5656 5657 5657 5658 5659 5659 5660 5661 5662 5663 5665 5666 5666 5667 5668 5669 5670 5671 5672 5673 5675 5676 5677 5679 5681 5682 5685 5687 5687 5687 5686 5687 5690 5692 5694 5696 5698 5699 5701 5704
5647 5647 5648 5648 5648 5649 5649 5649 5649 5650 5650 5650 5650 5650 5650 5650 5651 5651 5651 5651 5651 5652 5652 5653 5653 5653 5653 5654 5655 5655 5656 5656 5657 5658 5659 5659 5660 5661 5661 5662 5663 5664 5666 5667 5668 5670 5671 5672 5674 5675 5676 5676 5676 5677 5678 5681 5683 5684 5685 5688 5690 5693 5695